Wind_Speed
7 9 10 11 12 13 14 15 16 17 18 19 19 20 20 21 21 22 23 24 25 26 27 27 28 28 28 27 28 28 28 29 30 29 28 28 29 28 28 28 28 28 27 27
9 10 12 12 13 15 16 17 18 18 20 20 20 20 21 21 22 22 23 25 25 26 27 28 29 29 29 29 29 29 29 30 29 28 28 28 29 29 28 28 28 28 27 27
11 12 13 14 15 16 17 18 19 21 21 20 21 22 21 22 23 24 25 26 27 27 27 28 28 28 29 29 29 29 29 29 29 28 28 28 30 30 30 30 29 27 27 26
11 13 15 15 16 17 18 18 20 20 21 21 21 23 22 23 24 25 26 26 27 27 27 27 28 28 29 29 29 29 29 29 29 29 30 29 29 29 29 28 27 27 27 26
13 15 15 16 17 18 19 19 20 21 21 21 21 23 23 24 24 25 25 26 27 27 28 28 29 29 29 29 29 29 29 28 29 29 29 29 29 28 27 27 27 27 26 25
15 16 16 17 18 19 20 20 21 21 22 22 22 23 23 23 24 24 25 26 27 28 28 28 29 29 29 29 29 29 29 29 29 29 28 28 28 27 26 26 26 25 24 24
16 18 18 19 19 20 21 21 22 23 22 22 23 23 23 23 24 25 25 26 27 28 27 28 29 29 29 28 29 29 29 28 28 28 28 27 27 25 24 24 24 22 23 23
16 17 18 19 20 21 21 22 23 24 24 23 23 23 24 25 25 26 26 27 27 27 27 28 28 29 29 29 29 30 29 29 28 28 27 26 25 24 24 22 22 21 21 21
16 16 18 19 20 21 22 22 22 23 24 24 23 24 24 24 25 26 26 27 27 27 27 28 28 29 29 30 30 29 29 28 28 29 28 26 25 25 23 21 20 20 20 20
17 18 18 20 21 21 22 22 22 22 24 24 24 24 23 23 24 25 26 27 27 28 28 28 29 29 29 29 30 29 29 28 27 27 27 26 26 24 22 20 20 19 19 20
18 19 19 20 20 20 21 21 21 22 23 25 25 23 23 23 24 26 27 27 28 28 27 28 28 29 30 30 29 29 29 28 26 25 25 25 24 23 21 19 19 18 18 20
19 19 19 19 19 19 20 20 21 21 22 23 24 23 23 24 25 26 27 27 27 27 27 28 29 29 29 29 28 27 27 27 26 24 24 23 21 20 20 20 18 17 18 18
19 19 19 19 20 20 21 20 21 21 22 22 24 23 24 24 25 27 27 27 27 27 28 29 28 28 29 28 28 27 25 24 24 24 24 23 21 20 19 19 18 18 18 18
20 19 19 21 21 22 21 21 21 22 22 23 24 24 24 25 26 27 27 27 27 27 28 28 28 28 28 27 27 26 25 24 24 23 24 23 21 20 20 19 18 17 17 18
20 20 20 21 22 22 22 22 22 23 23 24 24 24 24 25 25 25 25 26 26 26 26 27 28 28 28 27 26 25 25 24 24 23 23 22 21 19 18 18 17 16 17 17
21 22 22 22 22 22 22 23 22 23 23 24 24 24 24 25 25 26 26 26 26 26 26 26 26 27 27 26 26 25 24 24 23 21 20 20 20 18 18 17 16 16 16 16
22 23 23 22 22 23 22 23 23 22 22 23 24 24 25 25 26 26 26 26 27 26 26 26 26 26 25 25 25 25 23 22 21 20 19 19 18 16 16 16 15 15 14 15
22 23 24 24 23 23 24 24 24 23 23 24 25 25 26 26 26 26 26 27 27 26 26 26 26 26 26 26 25 24 23 22 21 20 18 17 16 16 16 15 14 13 13 13
23 24 25 25 25 25 24 24 24 24 24 24 25 26 26 26 26 25 26 27 27 26 26 26 26 25 25 25 24 22 22 21 20 19 18 17 16 16 15 14 13 13 13 13
24 25 25 26 26 26 25 24 24 24 24 24 25 26 26 27 27 26 26 26 26 26 25 26 26 25 25 24 22 22 21 20 18 18 17 16 16 16 14 13 13 12 12 13
24 25 25 25 25 24 24 24 24 24 25 25 26 27 27 27 27 26 25 25 26 25 25 25 25 25 24 23 22 21 20 18 18 17 17 16 16 15 14 13 12 12 12 12
25 25 25 25 25 24 24 25 25 25 26 26 27 27 27 27 26 25 25 25 26 25 25 25 25 24 24 23 22 20 19 17 17 17 16 15 14 14 13 11 11 11 12 13
26 26 27 26 26 26 26 27 27 27 27 28 28 28 27 27 25 25 25 25 25 24 24 24 24 24 23 22 20 18 16 15 16 16 15 14 13 12 12 11 10 11 12 12
27 27 27 27 27 27 27 28 28 28 29 29 29 28 27 26 25 25 24 24 24 24 23 23 23 23 22 20 18 17 15 14 14 13 13 12 11 10 10 9 10 11 11 12
29 29 29 28 27 28 28 28 29 29 29 29 29 28 28 26 25 25 25 25 25 24 24 23 22 21 20 19 17 16 14 13 13 12 12 10 10 10 9 9 10 11 11 13
29 29 30 29 29 29 29 30 30 30 30 29 29 28 27 26 25 26 26 26 25 25 23 21 20 19 18 17 16 14 13 12 11 10 10 9 8 8 9 9 10 11 12 13
Wind_Direction
259 262 265 272 279 283 283 283 287 290 293 294 296 298 299 302 304 306 306 305 306 307 306 305 305 306 306 307 307 305 303 303 301 300 299 298 297 295 294 295 294 294 292 289
263 268 274 278 282 286 287 289 291 295 297 297 296 298 300 302 303 305 305 305 305 306 305 306 306 306 307 308 306 306 304 303 301 301 301 297 297 297 295 294 293 293 292 291
273 278 280 283 286 289 291 294 295 296 297 297 296 297 300 302 304 304 303 305 306 306 306 307 307 307 306 306 305 305 305 303 303 301 300 297 297 296 294 293 291 290 290 291
282 285 287 289 289 291 294 294 295 296 297 298 298 298 301 303 304 304 305 307 309 308 307 307 307 307 308 307 305 304 305 304 303 303 300 298 296 295 293 291 290 289 289 289
291 293 292 291 292 293 295 295 296 297 299 300 301 301 302 303 304 305 306 309 309 309 308 308 307 306 307 307 307 306 307 309 306 302 300 300 301 296 293 289 289 289 288 287
292 294 295 296 295 295 296 296 297 299 300 300 302 302 304 305 307 307 306 308 309 309 309 309 309 308 307 307 307 307 309 310 310 307 305 301 302 298 295 293 292 291 289 288
294 294 296 297 296 296 296 298 299 300 300 301 303 303 306 309 310 308 308 308 310 311 311 311 311 310 308 308 308 307 308 309 310 309 307 305 303 301 297 295 295 294 293 289
294 294 296 297 298 298 297 300 301 302 303 303 304 305 307 308 309 308 307 308 309 310 311 311 311 311 310 310 309 307 306 307 308 308 308 306 304 303 301 299 297 296 295 294
300 300 300 301 300 301 301 301 303 303 303 304 306 307 308 309 308 308 309 309 308 309 310 311 311 311 311 310 309 308 305 305 306 308 309 308 305 303 301 300 300 299 298 295
306 305 305 306 304 303 302 302 302 304 305 307 309 310 312 314 312 311 310 309 308 309 310 311 311 311 310 309 308 308 307 306 306 307 307 308 306 304 301 301 302 301 300 297
311 311 309 309 309 309 306 304 304 306 307 309 311 313 315 315 315 313 311 310 309 308 310 311 311 310 310 309 309 307 306 305 304 306 309 309 308 307 306 304 302 301 301 300
315 314 312 313 313 313 312 311 309 308 311 311 312 314 315 314 315 316 315 314 311 310 311 310 310 310 310 309 309 310 308 305 305 306 308 308 308 308 306 303 302 301 300 300
316 317 317 316 316 317 316 314 311 309 310 311 312 314 313 312 313 313 313 313 312 312 311 311 311 312 311 310 310 310 309 307 307 309 307 307 307 307 306 304 302 301 300 300
315 316 317 318 317 318 318 315 311 309 308 309 311 312 312 312 311 311 311 312 313 313 312 313 313 314 314 313 311 310 309 311 309 308 308 306 306 307 307 307 304 303 302 303
312 313 315 316 316 317 316 313 311 311 309 309 311 312 313 313 313 313 314 314 315 316 314 314 314 314 314 315 314 312 309 312 312 310 309 308 308 306 305 306 305 306 304 304
312 313 316 317 317 316 316 313 311 312 310 309 310 311 313 314 315 315 315 315 315 314 314 315 317 317 317 317 317 315 313 314 315 315 312 309 310 309 305 305 305 306 307 308
313 314 316 317 315 314 314 316 313 311 310 310 311 312 312 313 314 314 315 314 316 315 314 314 316 317 317 318 317 315 315 317 318 316 312 311 309 310 308 304 305 306 307 311
312 314 315 316 315 315 317 315 312 310 310 310 310 312 313 313 314 314 314 315 314 314 315 318 317 317 317 318 317 316 316 318 316 316 314 311 308 310 309 308 307 308 311 314
312 313 314 315 314 315 316 314 311 309 308 309 310 311 311 314 315 315 314 315 315 316 317 319 319 318 319 319 318 316 320 319 317 319 318 315 313 313 312 310 309 311 315 320
312 313 313 314 314 316 317 316 315 313 312 311 311 313 314 315 315 316 316 316 317 318 320 322 321 319 319 319 317 316 320 320 319 321 322 320 318 319 315 313 312 315 318 319
312 312 311 311 312 313 315 317 316 315 316 314 313 315 315 316 317 317 318 319 319 320 321 322 323 323 321 319 317 317 320 321 321 322 324 322 321 321 319 318 318 318 319 319
312 312 312 311 311 311 312 313 314 315 315 315 315 315 315 317 318 318 319 320 320 320 321 322 323 323 322 321 321 320 321 321 322 324 325 325 326 325 326 324 321 319 317 317
310 310 310 310 310 309 309 310 311 312 312 313 313 313 314 316 315 315 317 319 320 320 320 321 322 323 323 324 323 322 322 322 324 325 326 329 328 328 328 325 323 322 322 319
306 306 305 304 304 305 306 307 307 308 309 311 311 310 311 313 313 313 315 318 318 318 320 321 322 323 324 325 325 324 323 321 323 323 325 327 330 332 332 330 330 331 330 328
305 304 302 300 299 300 301 303 305 305 306 308 309 309 310 311 311 311 312 315 315 315 317 319 320 322 323 325 325 324 323 323 325 326 328 331 334 335 337 336 337 336 334 332
302 301 300 299 299 299 300 302 303 303 304 306 307 307 308 308 309 310 310 311 312 312 314 315 317 318 321 325 326 325 322 323 327 332 335 335 334 334 337 339 340 339 339 336
Height
5876 5877 5876 5875 5875 5874 5873 5871 5870 5868 5866 5864 5862 5860 5858 5856 5853 5851 5849 5846 5843 5840 5837 5833 5830 5827 5824 5821 5818 5814 5811 5808 5806 5803 5801 5799 5796 5794 5792 5790 5788 5786 5784 5782
5876 5875 5875 5874 5873 5871 5870 5868 5866 5865 5863 5860 5858 5856 5854 5852 5850 5847 5845 5842 5839 5836 5832 5828 5825 5822 5818 5815 5812 5808 5805 5802 5799 5796 5794 5792 5790 5787 5785 5782 5781 5779 5777 5776
5874 5874 5872 5872 5870 5869 5867 5865 5863 5861 5859 5856 5854 5852 5850 5848 5845 5843 5840 5837 5834 5830 5827 5823 5820 5816 5813 5809 5806 5803 5799 5796 5793 5790 5787 5785 5783 5780 5778 5776 5774 5772 5771 5769
5872 5871 5870 5869 5867 5865 5864 5862 5860 5857 5855 5853 5852 5848 5847 5844 5841 5838 5835 5832 5828 5825 5821 5818 5814 5811 5807 5803 5800 5796 5793 5790 5787 5784 5780 5777 5775 5773 5771 5769 5767 5765 5764 5762
5869 5868 5867 5866 5864 5862 5860 5858 5856 5854 5851 5849 5847 5845 5843 5840 5837 5834 5831 5827 5824 5820 5816 5812 5809 5805 5801 5798 5794 5791 5787 5784 5780 5777 5774 5770 5767 5765 5763 5762 5760 5758 5757 5755
5866 5864 5863 5862 5860 5857 5856 5854 5852 5850 5848 5846 5843 5841 5838 5836 5833 5829 5826 5823 5819 5815 5811 5807 5803 5799 5795 5792 5788 5785 5781 5777 5774 5770 5767 5764 5761 5758 5756 5755 5753 5751 5750 5748
5863 5861 5859 5857 5855 5854 5852 5850 5848 5845 5843 5842 5839 5836 5834 5831 5828 5824 5821 5818 5814 5809 5805 5802 5798 5794 5790 5786 5782 5779 5775 5771 5768 5765 5761 5758 5755 5751 5749 5748 5746 5745 5743 5742
5860 5858 5856 5853 5851 5849 5847 5846 5844 5841 5838 5837 5834 5831 5830 5826 5823 5819 5816 5812 5808 5804 5800 5796 5792 5788 5784 5780 5776 5772 5769 5765 5762 5759 5755 5752 5749 5746 5744 5742 5741 5739 5737 5736
5856 5855 5852 5849 5847 5845 5842 5840 5839 5836 5833 5831 5829 5827 5825 5821 5818 5814 5810 5807 5803 5798 5794 5790 5786 5782 5777 5773 5769 5765 5762 5759 5756 5752 5749 5746 5744 5741 5739 5737 5735 5733 5732 5730
5853 5851 5849 5846 5843 5840 5838 5836 5834 5831 5828 5825 5824 5822 5819 5815 5812 5808 5804 5800 5796 5792 5788 5784 5780 5776 5771 5767 5763 5759 5756 5753 5750 5747 5744 5741 5738 5735 5733 5731 5729 5727 5726 5725
5849 5847 5845 5842 5839 5836 5834 5832 5829 5827 5824 5821 5817 5818 5814 5810 5806 5802 5799 5794 5790 5787 5782 5778 5774 5769 5765 5761 5757 5753 5750 5747 5744 5741 5739 5736 5732 5729 5727 5725 5723 5722 5721 5720
5846 5844 5841 5839 5836 5833 5830 5827 5825 5823 5820 5816 5813 5814 5809 5805 5801 5797 5793 5789 5785 5781 5776 5772 5768 5763 5758 5754 5751 5747 5744 5741 5738 5736 5733 5730 5727 5724 5722 5720 5719 5718 5716 5715
5843 5840 5837 5835 5834 5830 5826 5823 5820 5818 5815 5812 5809 5810 5804 5800 5796 5792 5788 5783 5779 5775 5771 5766 5762 5757 5753 5748 5745 5742 5738 5736 5733 5730 5728 5725 5723 5720 5718 5716 5714 5713 5712 5711
5839 5837 5835 5832 5829 5825 5823 5820 5817 5814 5811 5808 5805 5803 5799 5795 5791 5787 5783 5778 5774 5770 5765 5761 5756 5752 5747 5743 5740 5736 5733 5731 5728 5725 5722 5719 5717 5716 5713 5712 5710 5708 5707 5706
5836 5834 5831 5828 5825 5821 5819 5816 5813 5810 5806 5803 5801 5797 5794 5789 5785 5781 5777 5773 5769 5764 5760 5756 5751 5747 5743 5739 5735 5731 5727 5725 5722 5719 5717 5715 5713 5710 5709 5707 5706 5704 5703 5701
5833 5830 5827 5824 5821 5818 5814 5811 5808 5805 5802 5799 5796 5793 5789 5784 5780 5776 5772 5768 5764 5760 5755 5751 5747 5742 5738 5734 5730 5726 5723 5721 5717 5715 5712 5710 5708 5706 5704 5703 5701 5700 5698 5697
5829 5826 5823 5820 5817 5814 5811 5808 5804 5801 5797 5794 5791 5789 5784 5780 5775 5771 5767 5763 5759 5755 5750 5746 5742 5738 5733 5729 5725 5722 5719 5716 5713 5711 5709 5706 5704 5701 5699 5698 5697 5695 5693 5693
5825 5822 5818 5815 5813 5809 5809 5802 5799 5796 5793 5789 5786 5782 5778 5775 5771 5766 5762 5758 5754 5750 5745 5741 5737 5733 5729 5725 5721 5717 5715 5711 5709 5707 5704 5702 5700 5698 5696 5694 5692 5691 5690 5689
5821 5818 5814 5811 5807 5804 5802 5798 5794 5791 5788 5785 5781 5777 5773 5769 5766 5762 5757 5753 5749 5745 5740 5736 5732 5728 5724 5720 5716 5713 5710 5708 5705 5703 5701 5698 5696 5694 5692 5690 5689 5688 5687 5685
5817 5813 5810 5806 5802 5799 5797 5793 5788 5786 5783 5780 5776 5772 5769 5765 5761 5758 5753 5749 5744 5740 5736 5732 5727 5723 5719 5715 5712 5709 5707 5704 5702 5699 5697 5695 5692 5690 5688 5687 5686 5685 5684 5682
5813 5809 5806 5802 5797 5794 5792 5788 5785 5782 5779 5775 5771 5768 5764 5760 5756 5752 5748 5744 5740 5736 5732 5727 5723 5719 5715 5711 5708 5705 5703 5701 5698 5696 5694 5692 5690 5688 5686 5685 5684 5682 5681 5680
5807 5804 5801 5797 5793 5792 5787 5783 5780 5777 5773 5770 5766 5763 5759 5755 5751 5747 5743 5739 5735 5731 5727 5723 5719 5715 5711 5707 5704 5701 5699 5698 5696 5693 5691 5689 5687 5685 5683 5682 5681 5680 5679 5677
5802 5799 5795 5792 5790 5785 5781 5778 5774 5771 5768 5765 5762 5758 5754 5751 5747 5743 5739 5735 5731 5727 5723 5719 5715 5712 5708 5704 5700 5698 5697 5695 5693 5691 5689 5687 5685 5683 5682 5681 5679 5678 5676 5674
5796 5793 5789 5786 5783 5780 5776 5773 5769 5766 5763 5759 5756 5752 5749 5745 5741 5738 5734 5731 5727 5723 5720 5716 5712 5709 5705 5701 5698 5696 5694 5692 5691 5689 5687 5686 5684 5682 5680 5679 5677 5676 5674 5672
5790 5786 5783 5780 5777 5774 5771 5767 5764 5760 5757 5754 5750 5746 5743 5739 5736 5733 5730 5726 5723 5719 5716 5713 5709 5706 5702 5699 5696 5694 5692 5690 5689 5687 5686 5684 5682 5681 5680 5678 5676 5675 5673 5671
5782 5779 5775 5773 5770 5767 5764 5761 5757 5754 5751 5748 5744 5740 5737 5733 5730 5727 5724 5721 5718 5715 5712 5709 5706 5703 5700 5697 5694 5692 5690 5689 5687 5686 5684 5683 5682 5681 5679 5678 5676 5674 5672 5669